Location: Unspecified
(0.0000°N, 0.0000°E)
Time: 22:21:20
(UTC+00:00)

deb Explorer IX - Pass Details

Date: 16 December 2018
Orbit: 538 x 1115 km, 38.8° (Epoch: 18 January)

Event Time Altitude Azimuth Distance (km) Brightness Sun altitude
Rises 01:01:48 0° 336° (NNW) 2,979 - -61.7°
Reaches altitude 10° 01:04:27 10° 351° (N) 2,161 - -61.3°
Maximum altitude 01:08:28 23° 43° (NE) 1,586 - -60.7°
Drops below altitude 10° 01:13:00 10° 95° (E) 2,481 - -60.0°
Sets 01:16:16 0° 108° (ESE) 3,537 - -59.5°
